Location: San Pelegr�n
(42.1868°N, 0.0079°E)
Time: 22:33:54
(UTC+00:00)

Daily predictions for brighter satellites

Satellite Brightness Start Highest point End
(mag) Time Altitude Azimuth Time Altitude Azimuth Time Altitude Azimuth
USA 234 3.3 17:19:59 10° ESE 17:26:26 68° NE 17:32:56 10° NW
SL-16 R/B 3.2 17:24:43 10° N 17:29:22 25° NE 17:34:00 10° ESE
CZ-4 R/B 2.6 17:27:37 10° ESE 17:30:45 22° ENE 17:33:57 10° NNE
Cosmos-2242 3.8 17:29:37 10° NNE 17:33:26 30° ENE 17:37:12 10° SE
Cosmos 2219 3.2 17:29:17 10° SSW 17:34:54 85° ESE 17:40:34 10° NNE
Cosmos 1812 Rocket 3.6 17:30:48 10° N 17:35:18 84° E 17:39:46 10° S
Cosmos 2082 4.4 17:31:07 10° SSE 17:36:03 33° ESE 17:41:01 10° NE
Cosmos 2341 Rocket 4.2 17:29:53 10° SSE 17:36:04 55° E 17:42:14 10° NNE
YAOGAN 1 3.6 17:39:20 10° ESE 17:42:49 24° ENE 17:46:19 10° NNE
Cosmos 2297 Rocket 2.2 17:38:06 10° SSW 17:43:42 71° ESE 17:49:21 10° NNE
H-2A ROCKET BODY 4.1 17:34:21 10° WSW 17:46:44 28° SSW 17:50:54 10° SE
H-2A R/B 3.9 17:44:49 10° S 17:48:32 48° W 17:52:19 10° NNW
Cosmos 1980 3.8 17:43:15 10° NNW 17:48:58 88° WSW 17:54:40 10° SSE
Meteor 1-21 Rocket 4.2 17:44:04 10° S 17:49:36 68° E 17:55:17 10° NNE
Cosmos 2251 Rocket 4.4 17:46:05 10° N 17:50:38 28° ENE 17:55:12 10° ESE
Cosmos 1340 Rocket 3.5 17:48:02 10° NNW 17:51:57 58° W 17:55:52 10° S
Cosmos 2219 Rocket 4.3 17:47:54 10° NW 17:52:53 32° WSW 17:57:49 10° SSW
ADEOS Rocket 4.3 17:48:29 10° NE 17:53:53 24° E 17:59:36 10° SE
ERBS 3.8 17:52:31 10° W 17:55:31 30° NW 17:58:29 10° NNE
Meteor 2-10 Rocket 3.8 17:50:40 10° N 17:55:43 44° ENE 18:00:34 10° SSE
SL-8 R/B 3.7 17:50:54 10° WSW 17:55:44 88° NNW 17:59:55 14° ENE
Cosmos 2227 Rocket 2.2 17:50:55 10° SSW 17:56:34 82° ESE 18:02:14 10° NNE
USA 32 4.0 17:52:21 10° S 17:57:34 82° E 18:02:49 10° N
FengYun 1-2 T 4.2 17:53:26 10° SSE 17:59:01 69° ENE 18:04:40 10° N
Cosmos 2218 Rocket 4.2 17:56:49 10° SSE 18:02:56 54° E 18:09:09 10° NNE
Envisat 3.6 18:05:59 10° S 18:11:00 63° W 18:16:03 10° NNW
Cosmos 1953 Rocket 3.5 18:08:26 10° S 18:12:54 71° E 18:17:23 10° NNE
DELTA 2 R/B (1) 3.8 18:09:04 10° W 18:14:37 69° S 18:18:56 17° ESE
COSMO-SKYMED 1 2.6 18:11:29 10° NNE 18:15:51 87° WNW 18:20:11 10° SSW
Cosmos 1758 Rocket 4.1 18:13:15 10° SSW 18:17:29 58° W 18:21:45 10° N
Cosmos 1842 Rocket 4.5 18:15:16 10° NNE 18:19:06 27° ENE 18:22:55 10° SE
Cosmos 1959 Rocket 4.4 18:13:21 10° S 18:19:28 70° E 18:25:33 10° NNE
YAOGAN 6 3.4 18:17:17 10° S 18:20:54 56° W 18:24:31 10° NNW
Cosmos 1703 3.2 18:19:23 10° S 18:23:19 71° E 18:27:17 10° NNE
Cosmos 44 3.3 18:18:58 10° SW 18:23:35 73° NW 18:27:20 14° NNE
CSL-04 Debris 4.1 18:22:27 10° SSE 18:27:47 69° ENE 18:33:10 10° N
Cosmos 1939 Rocket 2.8 18:26:01 10° SSE 18:29:49 55° ENE 18:33:43 10° N
Cosmos 2366 rocket 3.9 18:27:52 10° S 18:34:04 87° E 18:40:24 10° N
BREEZE-M DEB (TANK) 3.0 18:32:32 10° W 18:34:42 39° NNW 18:35:08 34° N
USA 267 4.4 18:30:19 12° NE 18:35:27 34° NNW 18:41:09 10° W
Shenzhou-11 Module 2.4 18:45:45 10° W 18:47:56 53° WNW 18:47:56 53° WNW
Cosmos 2237 Rocket 4.2 18:44:50 10° NW 18:49:39 30° WSW 18:54:27 10° SSW
CSL-04 Rocket 3.8 18:45:25 10° S 18:50:54 77° WSW 18:56:29 10° NNW
CZ-2D R/B 3.3 18:47:46 10° S 18:51:35 79° W 18:55:27 10° NNW
Cosmos 1455 3.6 18:49:40 10° NNW 18:53:13 38° W 18:56:44 10° SSW
Ariane Rocket 3.0 18:49:28 10° SE 18:54:22 52° ENE 18:59:18 10° N
USA 116 4.0 18:52:53 23° N 18:54:33 48° WNW 18:57:32 10° SSW
Cosmos 44 Rocket 3.6 18:52:29 10° S 18:56:57 44° ESE 18:56:57 44° ESE
ISS -2.0 19:00:09 10° WNW 19:02:58 25° NNW 19:02:58 25° NNW
Cosmos 1727 Rocket 4.0 18:57:53 10° N 19:04:05 80° W 19:10:14 10° S
Cosmos 2221 3.9 19:00:10 10° N 19:02:03 25° N 19:02:03 25° N
CZ-4 R/B 3.3 19:02:00 10° SSW 19:05:36 31° W 19:09:17 10° NNW
Atlas Centaur 2 3.6 19:02:15 10° SW 19:06:00 22° S 19:07:10 21° SSE
ATLAS CENTAUR R/B 1.7 19:05:19 10° NNW 19:08:22 49° NNW 19:08:22 49° NNW
SL-16 R/B 3.0 19:08:17 10° NNW 19:13:47 52° WSW 19:19:14 10° S
Cosmos 2227 4.2 19:08:36 10° S 19:14:12 56° ESE 19:14:12 56° ESE
Meteor 1-27 4.2 19:12:46 10° NNW 19:18:21 80° W 19:23:54 10° S
YAOGAN 1 4.4 19:14:57 10° SSW 19:18:46 31° W 19:22:38 10° NW
Cosmos 1603 4.1 19:20:58 10° NNW 19:25:18 47° NNE 19:25:18 47° NNE
H-2A R/B 3.7 19:30:16 20° N 19:30:16 20° N 19:31:54 10° N
Cosmos 2297 Rocket 4.5 19:24:16 10° W 19:28:20 20° NW 19:32:25 10° N
USA 238 DEB 3.9 19:23:14 10° S 19:28:45 48° SE 19:28:45 48° SE
USA 238 3.9 19:23:23 10° S 19:28:47 47° SE 19:28:47 47° SE
Meteor 2-2 Rocket 4.3 19:29:18 10° N 19:35:23 85° W 19:41:22 10° S
Cosmos 2263 Rocket 3.0 19:33:10 10° SSW 19:36:32 38° S 19:36:32 38° S
ADEOS Rocket 3.6 19:33:02 10° N 19:39:41 66° WNW 19:46:59 10° SSW
Cosmos 1821 Rocket 4.2 19:35:49 10° SSW 19:42:09 71° W 19:48:29 10° N
BREEZE-M DEB (TANK) 4.3 19:39:06 10° WNW 20:05:08 72° NNE 20:05:42 70° NE
FALCON 9 R/B 4.0 20:19:35 10° WSW 20:27:43 32° SSW 20:27:43 32° SSW
